Location: Maillé
(47.0538°N, 0.5822°E)
Time: 10:13:30
(UTC+00:00)

Daily predictions for brighter satellites

Satellite Brightness Start Highest point End
(mag) Time Altitude Azimuth Time Altitude Azimuth Time Altitude Azimuth
CENTAUR R/B 2.5 20:21:50 10° SW 20:27:17 87° NW 20:34:18 10° NE
Cosmos 44 Rocket 3.5 20:23:14 10° NW 20:28:26 83° NE 20:33:29 10° SE
Meteor 1-27 Rocket 3.7 20:27:26 10° S 20:33:02 87° E 20:38:35 10° NNE
Cosmos 2208 Rocket 4.3 20:29:38 10° S 20:34:35 47° ESE 20:39:33 10° NNE
BREEZE-M DEB (TANK) 2.7 20:33:20 10° W 20:36:21 48° N 20:38:19 10° ENE
SKYMED 3 4.4 20:33:36 10° NNE 20:37:37 86° W 20:41:36 10° SSW
SPOT 3 Rocket 4.2 20:34:33 10° SE 20:39:20 42° ENE 20:44:10 10° N
SL-12 R/B (Aux Motor) 3.8 20:37:53 10° WSW 20:39:59 68° SSE 20:43:43 10° E
Aureole 2 4.0 20:37:20 10° SSW 20:40:15 79° WNW 20:43:04 10° NNE
NOSS 2-2 (D) 4.3 20:38:39 10° WSW 20:41:52 41° NW 20:44:45 10° NNE
Cosmos 2082 4.0 20:37:41 10° SSW 20:43:17 72° WNW 20:48:54 10° NNE
YAOGAN 11 4.3 20:39:14 10° NNE 20:43:36 52° E 20:47:53 10° S
Cosmos 2227 4.3 20:38:50 10° S 20:44:25 57° ESE 20:50:04 10° NE
Meteor 2-20 Rocket 4.4 20:41:20 10° S 20:47:04 69° E 20:53:02 10° NNE
Okean 3 Rocket 4.4 20:42:59 10° N 20:47:08 37° ENE 20:51:06 11° SE
CZ-4 R/B 3.5 20:44:24 10° SSW 20:47:22 22° W 20:50:23 10° NW
Cosmos 2263 Rocket 4.1 20:42:28 10° WSW 20:47:32 34° NW 20:52:36 10° NNE
Cosmos 2266 Rocket 4.3 20:42:31 10° NNW 20:48:43 73° W 20:55:00 10° S
Ariane Rocket 3.8 20:44:18 10° SE 20:48:59 39° ENE 20:53:41 10° N
Helios 1A Rocket 2.9 20:46:35 10° N 20:49:39 58° WNW 20:52:43 10° SSW
Okean-O 2.6 20:45:36 10° SSE 20:49:59 89° W 20:54:23 10° NNW
Spot 2 Rocket 3.7 20:46:46 10° S 20:51:50 77° WSW 20:56:56 10° NNW
NOSS 3-2 (A) 3.1 20:50:17 10° SSW 20:55:05 55° ESE 21:00:46 10° NE
CZ-4B R/B 4.0 20:49:52 10° S 20:55:08 48° W 21:00:20 10° NNW
Cosmos 1340 Rocket 3.4 20:53:14 10° N 20:56:47 37° ENE 20:59:47 13° SE
Cosmos 1842 Rocket 3.6 20:52:52 10° S 20:57:16 69° E 21:01:42 10° NNE
Cosmos 1603 3.9 20:52:45 10° NNW 20:58:30 66° ENE 21:03:42 12° SE
USA 215 3.9 20:52:21 10° E 20:58:38 52° NNE 21:04:55 10° NW
Cosmos 773 Rocket 4.0 20:54:26 10° SSW 20:59:34 87° WNW 21:04:46 10° NNE
BREEZE-M DEB (TANK) 2.0 20:59:04 10° W 21:01:04 30° SSW 21:02:13 16° SSE
ADEOS 4.5 20:57:21 10° S 21:02:20 46° W 21:07:22 10° NNW
Cosmos 1570 Rocket 4.4 20:59:27 10° SSW 21:04:46 71° WNW 21:10:07 10° NNE
EXPRESS MD2 3.8 21:02:00 10° WNW 21:06:10 38° SW 21:08:14 16° SSE
USA 245 3.1 21:03:10 13° SSE 21:06:32 62° ENE 21:09:40 10° N
Cosmos 1844 Rocket 2.6 21:01:15 10° SSW 21:06:49 83° ESE 21:12:25 10° NNE
Meteor 2-10 Rocket 3.9 21:02:56 10° NNW 21:08:46 79° W 21:14:28 10° S
SL-14 R/B 3.1 21:06:27 10° S 21:10:07 66° E 21:13:50 10° NNE
Cosmos 1238 Rocket 4.1 21:06:51 10° SSW 21:11:35 52° WNW 21:16:15 10° N
Cosmos 1553 Rocket 4.5 21:07:18 11° SSE 21:13:07 45° E 21:19:04 10° NNE
CZ-4C R/B 3.4 21:07:46 10° NW 21:14:45 59° WSW 21:22:43 12° SSE
Cosmos 1151 Rocket 3.5 21:14:26 14° SSE 21:17:53 43° E 21:22:00 10° NNE
Cosmos 1833 Rocket 4.1 21:13:05 10° N 21:17:57 29° NE 21:22:47 10° ESE
CZ-2C R/B 3.1 21:23:48 20° ESE 21:25:03 29° ENE 21:27:31 10° N
SL-24 R/B - RUBIN 2 3.8 21:22:54 10° SW 21:27:26 72° NW 21:31:49 10° NE
Cosmos 1953 3.9 21:25:13 10° NNE 21:27:50 19° ENE 21:29:35 14° ESE
Cosmos 1844 3.9 21:22:12 10° SSW 21:27:58 78° WNW 21:33:49 10° NNE
CZ-4B R/B 3.5 21:24:45 16° SSE 21:28:53 80° ENE 21:34:05 10° NNW
Okean O Rocket 2.9 21:25:29 10° SSW 21:29:27 35° W 21:33:29 10° NNW
In-Cosmos 22 4.3 21:29:05 10° S 21:34:50 86° W 21:40:38 10° N
NOSS 3-2 (C) 3.4 21:31:53 10° S 21:36:32 43° ESE 21:41:57 10° NE
NOSS 2-3 (C) 4.3 21:42:37 21° ESE 21:42:37 21° ESE 21:45:16 10° ENE
USA 186 3.8 21:41:32 10° SW 21:42:56 14° W 21:44:17 10° WNW
Cosmos 1461 2.6 21:39:53 10° NW 21:43:21 61° WSW 21:45:06 26° SSE
CZ-4B R/B 3.3 21:42:34 17° S 21:45:24 53° W 21:49:17 10° NNW
Cosmos 1745 Rocket 4.5 21:40:49 10° N 21:46:51 48° ENE 21:51:04 20° SE
Sich 1 4.1 21:50:02 10° NNW 21:54:01 39° W 21:57:32 13° SSW
Cosmos 1500 Rocket 3.5 21:49:44 10° NNW 21:54:05 80° W 21:56:48 22° S
Cosmos 2344 4.1 21:48:48 14° S 21:54:52 36° ESE 22:01:17 10° NE
Helios 1A 4.0 21:52:58 10° NE 21:56:22 27° E 21:57:27 24° SE
GP-B 3.0 21:54:15 10° N 21:58:40 85° E 22:01:22 23° S
Iridium 4 Rocket 3.6 21:55:05 21° SSE 21:58:48 69° E 22:03:53 10° N
Helios 1B rocket 4.1 21:57:42 14° E 21:59:12 17° ENE 22:01:33 10° NNE
BREEZE-M R/B 4.5 21:57:28 20° S 22:00:07 33° SE 22:07:24 10° ENE
Cosmos 1607 4.0 21:54:50 10° NW 22:01:16 80° SW 22:05:32 23° SSE
Cosmos 2285 Rocket 4.2 22:02:26 10° NNW 22:08:45 69° WSW 22:13:01 22° S
NOSS 2-3 (D) 3.0 22:07:04 18° SSW 22:09:42 66° SE 22:13:27 10° NE
ALOS 2 4.5 22:11:55 14° ESE 22:14:20 20° ENE 22:17:34 10° NNE
Cosmos 1538 Rocket 4.0 22:11:36 21° S 22:15:00 67° ESE 22:20:12 10° NNE
Cosmos 2315 Rocket 4.4 22:13:38 24° SSE 22:17:09 50° E 22:23:07 10° NNE
Cosmos 1943 Rocket 3.3 22:16:33 22° SE 22:18:11 25° ESE 22:22:43 10° NE
Iridium 45 4.0 22:18:34 47° S 22:19:20 87° E 22:22:24 10° N
Cosmos 1328 Rocket 3.6 22:24:40 33° SSE 22:26:25 61° E 22:30:43 10° NNE
Ariane Rocket 4.4 22:24:12 13° SSW 22:27:56 30° W 22:32:23 10° NNW
Lacrosse 5 rocket 1.7 22:30:44 33° ESE 22:30:44 33° ESE 22:33:25 10° ENE
Cosmos 1666 Rocket 3.4 22:31:26 10° N 22:35:48 87° E 22:37:29 37° S
NOSS 2-3 (E) 3.5 22:33:45 11° SW 22:37:18 65° NW 22:41:06 10° NE
Cosmos 1703 4.2 22:37:14 20° SW 22:38:46 32° WNW 22:41:40 10° N
USA 215 3.2 22:37:29 25° SE 22:41:32 69° SW 22:48:03 10° NW
GEOS 3 Rocket 3.8 22:45:16 24° SE 22:48:33 73° NE 22:53:57 10° NW
Timation 1 Rocket 4.3 22:45:39 10° NNW 22:51:40 84° ENE 22:54:45 30° SSE
S3M 4.0 22:48:42 23° SSW 22:52:37 75° W 22:58:47 10° N
Cosmos 1515 Rocket 3.9 22:55:38 39° SE 22:56:48 51° E 23:01:01 10° NNE
Meteor 1-15 Rocket 4.5 22:52:35 10° NNW 22:58:20 64° W 23:01:13 30° SSW
CSL-04 DEB 4.3 22:57:32 45° SE 22:58:23 60° ENE 23:02:02 10° N
ARGOS Delta rocket 4.0 22:54:32 10° NNE 22:59:57 80° E 23:02:18 34° S
USA 59 Rocket 1.0 23:01:29 23° E 23:01:29 23° E 23:03:09 10° ENE
Spot 4 4.0 22:59:30 35° SE 23:01:27 68° ENE 23:06:16 10° N
Cosmos 1833 Rocket 3.0 22:56:40 10° NW 23:02:12 56° WSW 23:04:36 32° S
Cosmos 1953 3.4 22:59:38 10° NNW 23:02:48 30° W 23:03:47 26° WSW
Cosmos 1709 Rocket 4.3 22:59:44 10° NNW 23:06:00 62° W 23:09:28 27° SSW
Meteor 1-16 Rocket 4.2 23:00:37 10° NNW 23:06:08 81° W 23:08:42 34° S
Cosmos 2082 Rocket 3.2 23:02:41 10° NNW 23:07:58 39° NE 23:11:51 17° ESE
Okean 3 3.9 23:09:18 39° ESE 23:09:56 42° E 23:13:44 10° NNE
Meteor 1-23 Rocket 4.3 23:07:55 29° SSW 23:10:53 76° WNW 23:16:29 10° N
Cosmos 2278 Rocket 2.5 23:09:54 35° SSE 23:11:54 50° ESE 23:17:22 10° NE
Cosmos 1633 Rocket 3.7 23:09:22 10° NNW 23:13:33 46° W 23:15:02 33° SW
Cosmos 1680 Rocket 3.4 23:22:43 36° SSW 23:24:54 86° ESE 23:30:07 10° NNE
Cosmos 1400 Rocket 2.5 23:21:16 10° N 23:24:58 71° ENE 23:25:30 59° SE
Cosmos 1624 Rocket 4.0 23:19:47 10° NNW 23:25:07 87° ENE 23:27:15 38° SSE
Cosmos 494 Rocket 3.9 23:24:39 38° S 23:26:38 75° ESE 23:31:53 10° NNE
CZ-2C R/B 3.6 23:22:24 10° NNE 23:27:48 49° E 23:29:38 35° SSE
Meteor 1-12 Rocket 4.3 23:25:39 10° NNW 23:31:18 72° W 23:33:43 36° S
Cosmos 2056 Rocket 3.4 23:26:44 10° NNW 23:31:51 80° WSW 23:33:39 41° S
Helios 1B rocket 2.9 23:31:35 34° WSW 23:31:53 34° W 23:35:05 10° NNW
ARIANE 5 R/B 2.9 23:36:34 41° SSW 23:37:46 55° W 23:42:09 10° NNW
USA 238 DEB 3.4 23:36:16 27° SSW 23:39:47 82° SE 23:46:32 10° NE
USA 238 3.4 23:36:31 28° SSW 23:40:00 81° SE 23:46:45 10° NE
ACS3 Solar Sail 2.7 23:35:49 10° NNE 23:40:55 32° E 23:43:12 24° SE
Okean 2 4.2 23:42:05 30° WSW 23:43:12 38° WNW 23:46:50 10° N
BREEZE-M DEB (TANK) 3.8 23:34:46 10° W 23:48:58 73° N 23:53:10 10° E
ALOS 2 3.1 23:49:18 39° SW 23:50:21 48° W 23:54:37 10° NNW
Cosmos 1933 Rocket 3.7 23:48:38 10° NNW 23:52:53 61° W 23:53:53 46° SSW
Cosmos 1441 Rocket 2.7 23:54:18 76° W 23:54:19 76° W 23:57:33 10° N
